Hlavní strana
METAR-TAF:

METAR-TAF

Letiště :

Wapakoneta, Ohio, Spojené státy americké

zeměpisná šířka: 40-29-37N, zeměpisná délka: 084-17-53W, výška: 278 m

Aktuální stav počasí

Zpráva byla vytvořena před 32 minutami, v 02:55 UTC
Jihojihozápadní vítr 9 kt
Teplota -2°C
Vlhkost vzduchu 63%
Tlak 1030 hPa
Viditelnost: 16.1 km
Jasno

METAR: KAXV 220255Z AUTO 21009KT 10SM CLR M02/M08 A3041 RMK AO2

Čas: 22:27 (03:27 UTC)


TAF: chybějící

Stav a předpovědi počasí z více než 4 000 letišť (zprávy METAR a TAF).

Červené a žluté tečky na mapě představují dostupné meteorologické stanice.

Když kurzor umístíte na tečku, zobrazí se název stanice.

Pak kliknutím zobrazíte stav a předpověď počasí.

Chcete-li změnit mapu, kliknutím na zelené tlačítko se znaménkem +mapu přiblížíte, kliknutím na zelené tlačítko se znaménkem – mapu oddálíte a kliknutím na zelené šipky přejdete na sousední mapy.


METAR-TAF: